Terug naar catalogus

NIMBUS 2 DEB

ActiefLEO
NORAD 40646·DEBRIS·🇺🇸 United States

Gelanceerd May 15, 1966 vanaf Vandenberg Space Force Base

Loading…

Volgende Passages (komende 24 uur)

TLE

VerouderendSource: Space-Track

Epoch: Sep 12, 2026, 03:46 UTC

1 40646U 66040BK  26255.15721759  .00001218  00000-0  19931-2 0  9990
2 40646 100.3694 152.2499 0048871 282.4683  77.0983 13.49472636555709

Volg NIMBUS 2 DEB in realtime met AllMySat

Download on the App Store